Location: Key Biscayne
(25.6930°N, 80.1630°W)
Time: 01:59:09
(UTC-04:00)

CZ-2D R/B - Visible Passes

Search period start: 01 October 2014 00:00
Search period end: 11 October 2014 00:00
Orbit: 535 x 555 km, 97.6° (Epoch: 30 September)

Date Brightness Start Highest point End Pass type
(mag) Time Alt. Az. Time Alt. Az. Time Alt. Az.
01 Oct 5.1 20:36:01 19° NNE 20:36:01 19° NNE 20:37:20 10° N visible
02 Oct 5.3 20:30:18 16° NNE 20:30:18 16° NNE 20:31:19 10° NNE visible
03 Oct 5.5 20:24:35 14° NNE 20:24:35 14° NNE 20:25:15 10° NNE visible
04 Oct 5.6 20:18:51 11° NNE 20:18:51 11° NNE 20:19:07 10° NNE visible
